Edwards AFB North Base, CA

3:25 PM PST on November 11, 2019 (GMT -0800)
Edwards AFB North Base

Weather History for K9L2 - September, 2019

Change the Weather History Date:

Sunday, September 29, 2019

  Actual Average (KEDW) Record (KEDW)
Temperature  
Mean Temperature 58 °F -  
Max Temperature 70 °F 85 °F 98 °F (2011)
Min Temperature 47 °F 52 °F 45 °F (2013)
Degree Days  
Heating Degree Days 7    
Growing Degree Days 8 (Base 50)    
Moisture  
Dew Point 27 °F    
Average Humidity 33    
Maximum Humidity 48    
Minimum Humidity 16    
Precipitation  
Precipitation 0.00 in - - ()
Sea Level Pressure  
Sea Level Pressure 29.79 in    
Wind  
Wind Speed 15 mph ()    
Max Wind Speed 25 mph    
Max Gust Speed 32 mph    
Visibility 10.0 miles    
Events      
Averages and records for this station are not official NWS values.
T = Trace of Precipitation, MM = Missing Value Source: Averaged Metar Reports

Daily Weather History Graph

Daily Weather History Graph

Search for Another Location

Airport or City:

Astronomy

Sep. 29, 2019 Rise Set
Actual Time 6:44 AM PDT 6:38 PM PDT
Civil Twilight 6:19 AM PDT 7:03 PM PDT
Nautical Twilight 5:49 AM PDT 7:32 PM PDT
Astronomical Twilight 5:20 AM PDT 8:02 PM PDT
Moon 7:40 AM PDT (9/29) 7:43 PM PDT (9/29)
Length of Visible Light 12h 44m
Length of Day
11h 53m
New Moon, 2% of the Moon is Illuminated
Sep 29
New Moon
Oct 5
First Quarter
Oct 13
Full
Oct 21
Last Quarter
Oct 27
New

Hourly Weather History & Observations

Time (PDT) Temp. Dew Point Humidity Pressure Visibility Wind Dir Wind Speed Gust Speed Precip Events Conditions
12:13 AM 55.4 °F 32.0 °F 41% 29.73 in 10.0 mi WSW 15.0 mph - N/A   Mostly Cloudy
12:58 AM 55.6 °F 30.4 °F 38% 29.74 in 10.0 mi West 18.4 mph - N/A   Overcast
1:58 AM 54.3 °F 29.1 °F 38% 29.75 in 10.0 mi WSW 17.3 mph - N/A   Overcast
2:43 AM 51.8 °F 24.8 °F 35% 29.76 in 10.0 mi WSW 11.5 mph - N/A   Scattered Clouds
2:58 AM 52.5 °F 24.1 °F 33% 29.76 in 10.0 mi SW 11.5 mph - N/A   Scattered Clouds
3:58 AM 49.6 °F 24.4 °F 37% 29.77 in 10.0 mi SW 9.2 mph - N/A   Clear
4:58 AM 49.5 °F 28.4 °F 44% 29.77 in 10.0 mi WSW 19.6 mph - N/A   Clear
5:58 AM 49.1 °F 30.0 °F 48% 29.79 in 10.0 mi WSW 15.0 mph - N/A   Clear
6:58 AM 47.5 °F 28.8 °F 48% 29.82 in 10.0 mi WSW 11.5 mph - N/A   Clear
7:58 AM 52.5 °F 30.2 °F 42% 29.83 in 10.0 mi SW 17.3 mph - N/A   Clear
8:58 AM 56.5 °F 31.8 °F 39% 29.85 in 10.0 mi SW 18.4 mph 24.2 mph N/A   Clear
9:58 AM 59.9 °F 31.5 °F 34% 29.85 in 10.0 mi WSW 25.3 mph 32.2 mph N/A   Clear
10:58 AM 62.2 °F 30.4 °F 30% 29.83 in 10.0 mi WSW 19.6 mph 27.6 mph N/A   Clear
12:58 PM 67.8 °F 21.6 °F 17% 29.79 in 10.0 mi WSW 24.2 mph 29.9 mph N/A   Clear
1:58 PM 69.1 °F 20.1 °F 16% 29.77 in 10.0 mi West 20.7 mph 29.9 mph N/A   Clear
2:58 PM 68.7 °F 22.8 °F 18% 29.77 in 10.0 mi West 25.3 mph 32.2 mph N/A   Clear
3:58 PM 68.4 °F 20.3 °F 16% 29.77 in 10.0 mi West 25.3 mph 29.9 mph N/A   Clear
4:58 PM 66.9 °F 21.9 °F 18% 29.76 in 10.0 mi West 24.2 mph - N/A   Clear
5:58 PM 63.3 °F 23.4 °F 22% 29.78 in 10.0 mi West 23.0 mph 29.9 mph N/A   Clear
6:58 PM 59.4 °F 25.3 °F 27% 29.79 in 10.0 mi WSW 17.3 mph 21.9 mph N/A   Clear
7:58 PM 56.5 °F 29.1 °F 35% 29.81 in 10.0 mi WSW 16.1 mph - N/A   Clear
8:58 PM 54.5 °F 28.0 °F 36% 29.83 in 10.0 mi WSW 13.8 mph - N/A   Clear
9:58 PM 52.9 °F 25.5 °F 35% 29.83 in 10.0 mi SW 12.7 mph - N/A   Clear
10:58 PM 51.4 °F 25.7 °F 37% 29.85 in 10.0 mi SW 11.5 mph - N/A   Clear
11:58 PM 49.6 °F 25.0 °F 38% 29.85 in 10.0 mi SW 9.2 mph - N/A   Clear